Dobrodošli na spletni strani vremenske postaje Senovo. Vse informacije so informativnega značaja, saj vremenska postaja ni del državne mreže meteoroloških postaj. AKTUALNIH OBVESTIL NI.


Sneg/Led Od: 21-02-2018 00:00 Do: 23-02-2018 23:59 Opozorilo za: Sneg/Led Stopnja: Rumena info button
Veter Od: 21-02-2018 00:00 Do: 22-02-2018 23:59 Opozorilo za: Veter Stopnja: Rumena info button

Pogled proti Armezu več informacij Pogled proti Armezu


Lisca več informacij Lisca


Radar strel več informacij blitzortung!


opozorilo za sneg/led več informacij rain snow radar


Obiščite še:

Template documentation
and downloads

And another site



Weather Underground, zgodovina - Tekstovno

Dnevni povzetek za Januar 9, 2018 Enote:  Angleško    Metrično   Obe
« Predhodni Dan
Naslednji Dan »
Dnevni Tedenski Mesečni Letni Po meri
  Višja: Nižja: Povprečje:
Temperatura: TemperatureC °F 5.0 °F 7.1 °F
Točka rosišča: DewpointC °F 4.3 °F 6.3 °F
Vlažnost: Humidity % 90 % 95 %
Hitrost vetra: WindSpeedKMH mph 0.0 mph 1.6 mph
Sunki vetra: WindSpeedGustKMH mph - -
Veter:- - SSE
Zračni tlak: PressurehPa in 1018.2 in -
Padavine: 2.5 in    
Historical Graphs
 
 
Tabelarni podarki za Januar 9, 2018
Čas Temperatura Točka rosišča Zračni tlak Veter Hitrost vetra Sunki vetra Vlažnost Intenziteta padavin (urna)
TemperatureC °F DewpointC °F PressurehPa in Calm     Humidity % HourlyPrecipMM in
00:00 5.2 °F 4.8 °F 1024.9 in Calm     97 % 0.0 in
00:01 5.2 °F 4.8 °F 1024.9 in Calm     97 % 0.0 in
00:03 5.2 °F 4.8 °F 1024.9 in Calm     97 % 0.0 in
00:05 5.2 °F 4.8 °F 1024.9 in Calm     97 % 0.0 in
00:06 5.2 °F 4.8 °F 1024.9 in Calm     97 % 0.0 in
00:08 5.2 °F 4.8 °F 1024.9 in Calm     97 % 0.0 in
00:10 5.2 °F 4.8 °F 1024.9 in Calm     97 % 0.0 in
00:12 5.3 °F 4.9 °F 1023.9 in Calm     97 % 0.0 in
00:13 5.3 °F 4.9 °F 1023.9 in Calm     97 % 0.0 in
00:14 5.3 °F 4.9 °F 1023.9 in Calm     97 % 0.0 in
00:19 5.3 °F 4.9 °F 1023.9 in Calm     97 % 0.0 in
00:20 5.3 °F 4.9 °F 1023.9 in Calm     97 % 0.0 in
00:21 5.3 °F 4.9 °F 1023.9 in Calm     97 % 0.0 in
00:22 5.3 °F 4.9 °F 1023.9 in Calm     97 % 0.0 in
00:27 5.4 °F 4.9 °F 1024.9 in Calm     97 % 0.0 in
00:31 5.4 °F 4.9 °F 1024.9 in Calm     97 % 0.0 in
00:36 5.4 °F 4.9 °F 1024.9 in Calm     97 % 0.0 in
00:37 5.5 °F 5.1 °F 1024.9 in Calm     97 % 0.0 in
00:38 5.5 °F 5.1 °F 1024.9 in Calm     97 % 0.0 in
00:39 5.5 °F 5.1 °F 1024.9 in Calm     97 % 0.0 in
00:42 5.6 °F 5.2 °F 1024.9 in Calm     97 % 0.0 in
00:47 5.6 °F 5.2 °F 1023.9 in Calm     97 % 0.0 in
00:49 5.6 °F 5.2 °F 1023.9 in Calm     97 % 0.0 in
00:51 5.7 °F 5.3 °F 1023.9 in Calm   2.6 mph 97 % 0.0 in
00:52 5.7 °F 5.3 °F 1023.9 in SW 0.2 mph 3.2 mph 97 % 0.0 in
00:55 5.7 °F 5.3 °F 1023.9 in SW 1.1 mph 5.0 mph 97 % 0.0 in
00:57 5.7 °F 5.4 °F 1023.9 in SW 1.6 mph 5.0 mph 98 % 0.0 in
00:58 5.7 °F 5.4 °F 1024.9 in SW 1.9 mph 5.0 mph 98 % 0.0 in
01:02 5.8 °F 5.5 °F 1024.9 in SW 2.3 mph 5.0 mph 98 % 0.0 in
01:03 5.8 °F 5.5 °F 1024.9 in SW 1.9 mph 5.0 mph 98 % 0.0 in
01:07 5.8 °F 5.5 °F 1024.9 in WSW 0.5 mph 3.2 mph 98 % 0.0 in
01:10 5.8 °F 5.5 °F 1024.9 in Calm     98 % 0.0 in
01:12 5.8 °F 5.5 °F 1024.9 in Calm     98 % 0.0 in
01:13 5.9 °F 5.6 °F 1024.9 in Calm     98 % 0.0 in
01:14 5.9 °F 5.6 °F 1024.9 in Calm     98 % 0.0 in
01:16 5.9 °F 5.6 °F 1024.9 in Calm     98 % 0.0 in
01:19 6.0 °F 5.6 °F 1024.9 in Calm     97 % 0.0 in
01:22 6.3 °F 5.8 °F 1024.9 in WNW 0.3 mph 3.2 mph 97 % 0.0 in
01:24 6.4 °F 5.9 °F 1024.9 in WNW 0.3 mph 3.2 mph 97 % 0.0 in
01:25 6.4 °F 5.9 °F 1024.9 in WNW 0.3 mph 4.0 mph 97 % 0.0 in
01:26 6.4 °F 5.9 °F 1024.9 in WNW 0.3 mph 4.0 mph 97 % 0.0 in
01:27 6.5 °F 6.1 °F 1024.9 in WNW 0.5 mph 4.0 mph 97 % 0.0 in
01:28 6.5 °F 6.1 °F 1024.9 in West 0.6 mph 4.0 mph 97 % 0.0 in
01:31 6.7 °F 6.4 °F 1024.9 in WSW 1.0 mph 5.0 mph 98 % 0.0 in
01:32 6.7 °F 6.4 °F 1024.9 in WSW 1.1 mph 5.0 mph 98 % 0.0 in
01:33 6.7 °F 6.4 °F 1024.9 in WSW 1.4 mph 5.0 mph 98 % 0.0 in
01:34 6.8 °F 6.5 °F 1024.9 in WSW 1.4 mph 5.0 mph 98 % 0.0 in
01:35 6.8 °F 6.5 °F 1024.9 in WSW 1.4 mph 5.0 mph 98 % 0.0 in
01:38 6.9 °F 6.6 °F 1024.9 in WSW 1.3 mph 5.0 mph 98 % 0.0 in
01:39 6.9 °F 6.6 °F 1024.9 in West 1.1 mph 5.0 mph 98 % 0.0 in
01:41 6.9 °F 6.6 °F 1024.9 in NNW 0.3 mph 2.6 mph 98 % 0.0 in
01:45 7.0 °F 6.6 °F 1023.9 in NNE 0.2 mph 10.5 mph 97 % 0.0 in
01:47 7.1 °F 6.7 °F 1023.9 in ENE 1.3 mph 10.5 mph 97 % 0.0 in
01:49 7.1 °F 6.7 °F 1023.9 in ENE 1.4 mph 10.5 mph 97 % 0.0 in
01:52 7.3 °F 6.8 °F 1023.9 in ENE 1.6 mph 10.5 mph 97 % 0.0 in
01:53 7.3 °F 6.8 °F 1023.9 in ENE 1.6 mph 10.5 mph 97 % 0.0 in
01:54 7.3 °F 6.8 °F 1023.9 in ENE 1.6 mph 10.5 mph 97 % 0.0 in
01:57 7.4 °F 7.1 °F 1023.9 in NE 1.9 mph 6.4 mph 98 % 0.0 in
01:58 7.4 °F 7.1 °F 1024.9 in NE 1.9 mph 6.4 mph 98 % 0.0 in
02:00 7.4 °F 7.1 °F 1024.9 in NE 2.4 mph 6.4 mph 98 % 0.0 in
02:02 7.5 °F 7.2 °F 1024.9 in NE 3.2 mph 9.0 mph 98 % 0.0 in
02:03 7.5 °F 7.2 °F 1024.9 in NE 3.7 mph 9.0 mph 98 % 0.0 in
02:04 7.6 °F 7.3 °F 1024.9 in NE 4.2 mph 9.0 mph 98 % 0.0 in
02:05 7.7 °F 7.4 °F 1024.9 in NE 4.2 mph 9.0 mph 98 % 0.0 in
02:06 7.7 °F 7.4 °F 1024.9 in ENE 4.3 mph 9.0 mph 98 % 0.0 in
02:07 7.7 °F 7.4 °F 1024.9 in ENE 4.5 mph 9.7 mph 98 % 0.0 in
02:08 7.7 °F 7.4 °F 1024.9 in ENE 4.7 mph 9.7 mph 98 % 0.0 in
02:12 7.8 °F 7.5 °F 1024.9 in NE 5.5 mph 9.7 mph 98 % 0.0 in
02:14 7.8 °F 7.5 °F 1024.9 in ENE 5.3 mph 9.7 mph 98 % 0.0 in
02:16 7.8 °F 7.5 °F 1024.9 in NE 5.1 mph 10.5 mph 98 % 0.0 in
02:17 7.9 °F 7.6 °F 1024.9 in ENE 4.8 mph 10.5 mph 98 % 0.0 in
02:22 7.9 °F 7.6 °F 1024.9 in ENE 4.3 mph 10.5 mph 98 % 0.0 in
02:23 7.9 °F 7.6 °F 1024.9 in ENE 4.2 mph 10.5 mph 98 % 0.0 in
02:24 7.9 °F 7.6 °F 1024.9 in East 4.0 mph 10.5 mph 98 % 0.0 in
02:26 7.9 °F 7.6 °F 1024.9 in East 3.4 mph 7.6 mph 98 % 0.0 in
02:27 7.9 °F 7.6 °F 1024.9 in East 3.1 mph 6.4 mph 98 % 0.0 in
02:28 7.9 °F 7.6 °F 1024.9 in East 2.7 mph 6.1 mph 98 % 0.0 in
02:33 7.9 °F 7.6 °F 1024.9 in ENE 3.1 mph 9.3 mph 98 % 0.0 in
02:34 7.9 °F 7.6 °F 1024.9 in ENE 3.2 mph 9.3 mph 98 % 0.0 in
02:35 8.0 °F 7.6 °F 1024.9 in ENE 3.4 mph 9.3 mph 97 % 0.0 in
02:36 8.0 °F 7.6 °F 1024.9 in ENE 3.9 mph 9.3 mph 97 % 0.0 in
02:37 8.0 °F 7.6 °F 1024.9 in ENE 4.3 mph 9.3 mph 97 % 0.0 in
02:38 8.0 °F 7.6 °F 1024.9 in ENE 4.3 mph 9.3 mph 97 % 0.0 in
02:42 8.0 °F 7.6 °F 1024.9 in ENE 5.1 mph 9.3 mph 97 % 0.0 in
02:45 7.9 °F 7.6 °F 1024.9 in ENE 4.8 mph 9.3 mph 98 % 0.0 in
02:46 7.9 °F 7.6 °F 1024.9 in ENE 5.0 mph 9.3 mph 98 % 0.0 in
02:47 7.9 °F 7.6 °F 1024.9 in ENE 4.8 mph 9.3 mph 98 % 0.0 in
02:48 7.9 °F 7.6 °F 1024.9 in ENE 5.0 mph 9.3 mph 98 % 0.0 in
02:49 7.9 °F 7.4 °F 1024.9 in ENE 5.1 mph 9.3 mph 97 % 0.0 in
02:50 7.9 °F 7.4 °F 1024.9 in ENE 5.1 mph 9.3 mph 97 % 0.0 in
02:53 7.9 °F 7.4 °F 1024.9 in NE 4.0 mph 6.9 mph 97 % 0.0 in
02:59 7.8 °F 7.3 °F 1024.9 in NE 2.7 mph 6.1 mph 97 % 0.0 in
03:00 7.8 °F 7.3 °F 1024.9 in NNE 1.9 mph 6.1 mph 97 % 0.0 in
03:01 7.8 °F 7.3 °F 1024.9 in NNE 1.6 mph 6.1 mph 97 % 0.0 in
03:07 7.8 °F 7.3 °F 1024.9 in NE 1.4 mph 5.8 mph 97 % 0.0 in
03:09 7.8 °F 7.3 °F 1024.9 in NE 1.9 mph 5.8 mph 97 % 0.0 in
03:10 7.8 °F 7.3 °F 1024.9 in NE 2.3 mph 5.8 mph 97 % 0.0 in
03:11 7.8 °F 7.3 °F 1024.9 in NE 2.3 mph 5.8 mph 97 % 0.0 in
03:13 7.8 °F 7.3 °F 1024.9 in NNE 2.4 mph 5.8 mph 97 % 0.0 in
03:19 7.8 °F 7.3 °F 1024.9 in NNE 3.7 mph 7.6 mph 97 % 0.0 in
03:21 7.7 °F 7.3 °F 1024.9 in NNE 3.7 mph 7.6 mph 97 % 0.0 in
03:23 7.7 °F 7.3 °F 1024.9 in NNE 3.2 mph 6.9 mph 97 % 0.0 in
03:24 7.7 °F 7.3 °F 1024.9 in NNE 2.7 mph 6.9 mph 97 % 0.0 in
03:25 7.7 °F 7.3 °F 1024.9 in NNE 2.7 mph 6.9 mph 97 % 0.0 in
03:26 7.7 °F 7.3 °F 1024.9 in NNE 2.4 mph 6.9 mph 97 % 0.0 in
03:27 7.7 °F 7.3 °F 1023.9 in NNE 2.4 mph 6.9 mph 97 % 0.0 in
03:28 7.6 °F 7.2 °F 1023.9 in NNE 2.6 mph 6.9 mph 97 % 0.0 in
03:29 7.6 °F 7.2 °F 1023.9 in NNE 2.6 mph 6.9 mph 97 % 0.0 in
03:30 7.6 °F 7.2 °F 1023.9 in NNE 2.6 mph 6.9 mph 97 % 0.0 in
03:31 7.6 °F 7.2 °F 1023.9 in NNE 2.6 mph 6.9 mph 97 % 0.0 in
03:32 7.6 °F 7.2 °F 1023.9 in NNE 2.4 mph 5.8 mph 97 % 0.0 in
03:33 7.6 °F 7.2 °F 1023.9 in NE 2.4 mph 5.8 mph 97 % 0.0 in
03:35 7.6 °F 7.2 °F 1023.9 in NE 2.9 mph 5.8 mph 97 % 0.0 in
03:36 7.6 °F 7.2 °F 1023.9 in NE 2.6 mph 5.8 mph 97 % 0.0 in
03:37 7.6 °F 7.2 °F 1023.9 in NE 2.4 mph 5.8 mph 97 % 0.0 in
03:38 7.6 °F 7.2 °F 1023.9 in NE 2.1 mph 5.8 mph 97 % 0.0 in
03:39 7.6 °F 7.2 °F 1023.9 in NNE 1.9 mph 5.8 mph 97 % 0.0 in
03:40 7.6 °F 7.2 °F 1023.9 in NNE 1.8 mph 5.8 mph 97 % 0.0 in
03:41 7.6 °F 7.2 °F 1023.9 in NNE 2.1 mph 5.8 mph 97 % 0.0 in
03:42 7.6 °F 7.2 °F 1024.9 in North 2.3 mph 5.8 mph 97 % 0.0 in
03:43 7.6 °F 7.2 °F 1024.9 in NNW 2.3 mph 5.0 mph 97 % 0.0 in
03:44 7.6 °F 7.2 °F 1024.9 in NNW 2.1 mph 5.0 mph 97 % 0.0 in
03:45 7.7 °F 7.3 °F 1024.9 in NNW 1.6 mph 5.0 mph 97 % 0.0 in
03:46 7.7 °F 7.3 °F 1024.9 in NNW 1.6 mph 5.0 mph 97 % 0.0 in
03:50 7.7 °F 7.3 °F 1024.9 in NNE 2.4 mph 5.8 mph 97 % 0.0 in
03:54 7.6 °F 7.2 °F 1024.9 in NNE 2.7 mph 6.4 mph 97 % 0.0 in
03:55 7.7 °F 7.3 °F 1024.9 in NNE 3.5 mph 6.4 mph 97 % 0.0 in
03:56 7.7 °F 7.3 °F 1024.9 in NE 4.0 mph 6.4 mph 97 % 0.0 in
03:57 7.7 °F 7.3 °F 1023.9 in NE 4.0 mph 6.4 mph 97 % 0.0 in
03:58 7.7 °F 7.3 °F 1023.9 in NE 3.7 mph 6.4 mph 97 % 0.0 in
03:59 7.7 °F 7.3 °F 1023.9 in NE 3.5 mph 6.4 mph 97 % 0.0 in
04:00 7.6 °F 7.2 °F 1023.9 in NNE 3.2 mph 6.4 mph 97 % 0.0 in
04:01 7.6 °F 7.2 °F 1023.9 in NNE 3.2 mph 6.4 mph 97 % 0.0 in
04:02 7.5 °F 7.1 °F 1023.9 in NNE 2.7 mph 5.8 mph 97 % 0.0 in
04:03 7.5 °F 7.1 °F 1023.9 in NNE 2.6 mph 5.8 mph 97 % 0.0 in
04:04 7.5 °F 7.1 °F 1023.9 in North 2.3 mph 5.8 mph 97 % 0.0 in
04:05 7.5 °F 7.1 °F 1023.9 in North 2.3 mph 5.8 mph 97 % 0.0 in
04:06 7.5 °F 7.1 °F 1023.9 in NNW 1.8 mph 4.0 mph 97 % 0.0 in
04:07 7.5 °F 7.1 °F 1023.9 in NNW 1.8 mph 4.0 mph 97 % 0.0 in
04:08 7.5 °F 7.1 °F 1023.9 in NNW 1.4 mph 4.0 mph 97 % 0.0 in
04:09 7.5 °F 6.9 °F 1023.9 in NNW 1.9 mph 4.3 mph 96 % 0.0 in
04:10 7.5 °F 6.9 °F 1023.9 in NNW 1.9 mph 4.3 mph 96 % 0.0 in
04:11 7.4 °F 6.8 °F 1023.9 in NNW 2.1 mph 4.3 mph 96 % 0.0 in
04:12 7.4 °F 6.8 °F 1024.9 in NNW 1.9 mph 4.3 mph 96 % 0.0 in
04:13 7.4 °F 6.8 °F 1024.9 in NNW 1.8 mph 4.3 mph 96 % 0.0 in
04:14 7.4 °F 6.8 °F 1024.9 in NNW 1.8 mph 4.3 mph 96 % 0.0 in
04:15 7.3 °F 6.7 °F 1024.9 in NW 1.3 mph 4.3 mph 96 % 0.0 in
04:16 7.3 °F 6.7 °F 1024.9 in NW 1.0 mph 4.3 mph 96 % 0.0 in
04:17 7.3 °F 6.7 °F 1024.9 in NW 0.8 mph 4.3 mph 96 % 0.0 in
04:19 7.2 °F 6.6 °F 1024.9 in NW 0.6 mph 4.3 mph 96 % 0.0 in
04:20 7.2 °F 6.6 °F 1024.9 in NNW 0.5 mph 3.5 mph 96 % 0.0 in
04:21 7.1 °F 6.5 °F 1024.9 in NNW 0.3 mph 3.5 mph 96 % 0.0 in
04:22 7.0 °F 6.4 °F 1024.9 in NW 0.8 mph 3.5 mph 96 % 0.0 in
04:23 7.0 °F 6.4 °F 1024.9 in NW 0.8 mph 3.5 mph 96 % 0.0 in
04:24 7.0 °F 6.4 °F 1024.9 in NW 0.8 mph 3.5 mph 96 % 0.0 in
04:25 7.0 °F 6.4 °F 1024.9 in NW 0.8 mph 3.5 mph 96 % 0.0 in
04:26 7.0 °F 6.4 °F 1024.9 in WNW 0.8 mph 3.5 mph 96 % 0.0 in
04:28 7.0 °F 6.4 °F 1024.9 in West 1.4 mph 4.0 mph 96 % 0.0 in
04:29 7.0 °F 6.4 °F 1024.9 in West 1.4 mph 4.0 mph 96 % 0.0 in
04:31 6.9 °F 6.3 °F 1024.9 in WSW 1.1 mph 4.7 mph 96 % 0.0 in
04:32 6.9 °F 6.3 °F 1024.9 in WSW 1.3 mph 4.7 mph 96 % 0.0 in
04:33 6.9 °F 6.3 °F 1024.9 in WSW 1.1 mph 4.7 mph 96 % 0.0 in
04:34 6.9 °F 6.3 °F 1024.9 in WSW 1.1 mph 4.7 mph 96 % 0.0 in
04:35 6.9 °F 6.3 °F 1024.9 in WSW 1.3 mph 4.7 mph 96 % 0.0 in
04:36 6.9 °F 6.3 °F 1024.9 in WSW 1.3 mph 4.7 mph 96 % 0.0 in
04:37 6.9 °F 6.3 °F 1024.9 in West 1.1 mph 4.7 mph 96 % 0.0 in
04:41 6.8 °F 6.2 °F 1024.9 in North 1.6 mph 6.4 mph 96 % 0.0 in
04:42 6.8 °F 6.2 °F 1024.9 in North 1.6 mph 6.4 mph 96 % 0.0 in
04:43 6.8 °F 6.2 °F 1023.9 in NNE 1.9 mph 6.4 mph 96 % 0.0 in
04:44 6.9 °F 6.3 °F 1023.9 in NNE 2.7 mph 6.4 mph 96 % 0.0 in
04:46 6.9 °F 6.3 °F 1023.9 in NNE 2.9 mph 6.4 mph 96 % 0.0 in
04:48 7.0 °F 6.4 °F 1023.9 in NE 3.2 mph 6.4 mph 96 % 0.0 in
04:53 7.0 °F 6.4 °F 1023.9 in NNE 2.3 mph 5.0 mph 96 % 0.0 in
04:54 6.9 °F 6.3 °F 1023.9 in North 2.1 mph 4.7 mph 96 % 0.0 in
04:59 6.9 °F 6.3 °F 1023.9 in NW 2.1 mph 5.0 mph 96 % 0.0 in
05:01 6.8 °F 6.2 °F 1023.9 in NW 1.9 mph 5.0 mph 96 % 0.0 in
05:03 6.8 °F 6.2 °F 1023.9 in NW 2.3 mph 5.0 mph 96 % 0.0 in
05:04 6.8 °F 6.2 °F 1023.9 in WNW 2.3 mph 5.5 mph 96 % 0.0 in
05:05 6.8 °F 6.2 °F 1023.9 in NW 2.3 mph 5.5 mph 96 % 0.0 in
05:06 6.8 °F 6.2 °F 1023.9 in NW 2.3 mph 5.5 mph 96 % 0.0 in
05:08 6.8 °F 6.2 °F 1023.9 in WNW 2.9 mph 6.9 mph 96 % 0.0 in
05:09 6.8 °F 6.2 °F 1023.9 in WNW 2.9 mph 6.9 mph 96 % 0.0 in
05:12 6.8 °F 6.2 °F 1023.9 in WNW 2.9 mph 6.9 mph 96 % 0.0 in
05:13 6.8 °F 6.2 °F 1023.9 in WNW 2.6 mph 6.9 mph 96 % 0.0 in
05:14 6.8 °F 6.2 °F 1023.9 in WNW 2.6 mph 6.9 mph 96 % 0.0 in
05:15 6.8 °F 6.2 °F 1023.9 in WNW 2.3 mph 6.9 mph 96 % 0.0 in
05:16 6.7 °F 6.1 °F 1023.9 in WNW 1.8 mph 6.9 mph 96 % 0.0 in
05:19 6.7 °F 6.1 °F 1023.9 in West 0.8 mph 3.2 mph 96 % 0.0 in
05:20 6.6 °F 6.0 °F 1023.9 in SW 0.6 mph 3.2 mph 96 % 0.0 in
05:21 6.6 °F 6.0 °F 1023.9 in SW 0.5 mph 4.0 mph 96 % 0.0 in
05:24 6.5 °F 5.9 °F 1023.9 in NW 1.0 mph 4.0 mph 96 % 0.0 in
05:25 6.4 °F 5.8 °F 1023.9 in NW 1.1 mph 4.0 mph 96 % 0.0 in
05:28 6.4 °F 5.7 °F 1023.9 in NW 2.4 mph 5.0 mph 95 % 0.0 in
05:31 6.3 °F 5.6 °F 1023.9 in NW 2.9 mph 5.0 mph 95 % 0.0 in
05:33 6.3 °F 5.6 °F 1023.9 in NW 3.1 mph 5.0 mph 95 % 0.0 in
05:35 6.3 °F 5.6 °F 1023.9 in NW 2.4 mph 5.0 mph 95 % 0.0 in
05:39 6.1 °F 5.3 °F 1023.9 in WNW 1.0 mph 4.0 mph 95 % 0.0 in
05:40 6.1 °F 5.3 °F 1023.9 in WNW 1.0 mph 4.0 mph 95 % 0.0 in
05:42 6.1 °F 5.3 °F 1023.9 in WNW 0.3 mph 3.2 mph 95 % 0.0 in
05:43 6.1 °F 5.3 °F 1023.9 in WNW 0.3 mph 3.2 mph 95 % 0.0 in
05:44 6.1 °F 5.3 °F 1023.9 in WNW 0.3 mph 3.2 mph 95 % 0.0 in
05:46 6.1 °F 5.3 °F 1023.9 in NW 0.6 mph 4.7 mph 95 % 0.0 in
05:50 6.0 °F 5.3 °F 1023.9 in NW 1.4 mph 4.7 mph 95 % 0.0 in
05:51 6.0 °F 5.3 °F 1023.9 in NW 1.4 mph 4.7 mph 95 % 0.0 in
05:52 6.0 °F 5.3 °F 1023.9 in NW 1.4 mph 4.7 mph 95 % 0.0 in
05:53 6.0 °F 5.3 °F 1023.9 in NW 1.4 mph 4.7 mph 95 % 0.0 in
05:54 6.0 °F 5.3 °F 1023.9 in NW 1.6 mph 4.7 mph 95 % 0.0 in
05:55 6.0 °F 5.3 °F 1023.9 in NW 2.1 mph 5.0 mph 95 % 0.0 in
05:56 6.0 °F 5.3 °F 1023.9 in NW 2.3 mph 5.0 mph 95 % 0.0 in
05:59 6.0 °F 5.3 °F 1023.9 in WNW 2.6 mph 5.5 mph 95 % 0.0 in
06:00 6.0 °F 5.3 °F 1023.9 in WNW 2.7 mph 5.5 mph 95 % 0.0 in
06:01 6.0 °F 5.3 °F 1023.9 in WNW 2.7 mph 5.5 mph 95 % 0.0 in
06:02 6.0 °F 5.3 °F 1023.9 in NW 2.6 mph 5.8 mph 95 % 0.0 in
06:03 6.0 °F 5.3 °F 1023.9 in NW 2.9 mph 5.8 mph 95 % 0.0 in
06:05 6.0 °F 5.3 °F 1023.9 in NW 2.6 mph 5.8 mph 95 % 0.0 in
06:08 5.9 °F 5.2 °F 1023.9 in NW 1.9 mph 5.8 mph 95 % 0.0 in
06:09 5.9 °F 5.2 °F 1023.9 in NNW 1.4 mph 5.8 mph 95 % 0.0 in
06:11 5.8 °F 5.1 °F 1023.9 in NNW 1.1 mph 5.8 mph 95 % 0.0 in
06:13 5.8 °F 5.1 °F 1023.9 in WNW 1.1 mph 4.3 mph 95 % 0.0 in
06:16 5.8 °F 5.1 °F 1023.9 in NW 1.3 mph 4.3 mph 95 % 0.0 in
06:17 5.8 °F 5.1 °F 1023.9 in NW 1.3 mph 4.3 mph 95 % 0.0 in
06:18 5.8 °F 5.1 °F 1023.9 in NW 1.3 mph 4.3 mph 95 % 0.0 in
06:19 5.8 °F 5.1 °F 1023.9 in NW 1.3 mph 4.3 mph 95 % 0.0 in
06:20 5.8 °F 5.1 °F 1023.9 in NW 1.4 mph 4.3 mph 95 % 0.0 in
06:21 5.8 °F 5.1 °F 1023.9 in NW 1.4 mph 4.3 mph 95 % 0.0 in
06:22 5.7 °F 4.9 °F 1023.9 in NW 1.4 mph 4.0 mph 95 % 0.0 in
06:23 5.7 °F 4.9 °F 1023.9 in NW 1.4 mph 4.0 mph 95 % 0.0 in
06:24 5.7 °F 4.9 °F 1023.9 in NW 1.4 mph 4.0 mph 95 % 0.0 in
06:26 5.7 °F 4.9 °F 1023.9 in WNW 0.8 mph 4.0 mph 95 % 0.0 in
06:27 5.7 °F 4.9 °F 1023.9 in WNW 0.8 mph 4.0 mph 95 % 0.0 in
06:28 5.7 °F 4.9 °F 1023.9 in WNW 0.8 mph 4.0 mph 95 % 0.0 in
06:29 5.7 °F 4.9 °F 1023.9 in WNW 0.8 mph 4.0 mph 95 % 0.0 in
06:30 5.6 °F 4.9 °F 1023.9 in WNW 0.6 mph 4.0 mph 95 % 0.0 in
06:31 5.6 °F 4.9 °F 1023.9 in WNW 0.3 mph 4.0 mph 95 % 0.0 in
06:33 5.6 °F 4.9 °F 1023.9 in Calm   1.4 mph 95 % 0.0 in
06:34 5.6 °F 4.9 °F 1023.9 in Calm   1.4 mph 95 % 0.0 in
06:36 5.6 °F 4.9 °F 1023.9 in Calm   1.4 mph 95 % 0.0 in
06:37 5.6 °F 4.9 °F 1023.9 in Calm     95 % 0.0 in
06:38 5.5 °F 4.8 °F 1023.9 in Calm     95 % 0.0 in
06:40 5.5 °F 4.8 °F 1023.9 in Calm     95 % 0.0 in
06:41 5.5 °F 4.8 °F 1023.9 in Calm     95 % 0.0 in
06:42 5.5 °F 4.8 °F 1023.9 in Calm     95 % 0.0 in
06:43 5.4 °F 4.7 °F 1023.9 in Calm   2.1 mph 95 % 0.0 in
06:44 5.4 °F 4.7 °F 1023.9 in Calm   2.1 mph 95 % 0.0 in
06:45 5.4 °F 4.7 °F 1023.9 in Calm   2.1 mph 95 % 0.0 in
06:46 5.4 °F 4.7 °F 1023.9 in Calm   3.2 mph 95 % 0.0 in
06:47 5.4 °F 4.7 °F 1023.9 in West 0.2 mph 3.2 mph 95 % 0.0 in
06:49 5.4 °F 4.7 °F 1023.9 in West 0.3 mph 3.2 mph 95 % 0.0 in
06:50 5.4 °F 4.7 °F 1023.9 in West 0.3 mph 3.2 mph 95 % 0.0 in
06:51 5.3 °F 4.6 °F 1023.9 in West 0.3 mph 3.2 mph 95 % 0.0 in
06:52 5.3 °F 4.6 °F 1023.9 in West 0.3 mph 3.5 mph 95 % 0.0 in
06:53 5.3 °F 4.6 °F 1023.9 in West 0.3 mph 3.5 mph 95 % 0.0 in
06:54 5.3 °F 4.6 °F 1023.9 in West 0.6 mph 3.5 mph 95 % 0.0 in
06:56 5.3 °F 4.6 °F 1023.9 in West 0.6 mph 3.5 mph 95 % 0.0 in
06:57 5.3 °F 4.6 °F 1024.9 in WSW 0.5 mph 3.5 mph 95 % 0.0 in
06:58 5.3 °F 4.6 °F 1024.9 in West 0.3 mph 3.5 mph 95 % 0.0 in
06:59 5.3 °F 4.6 °F 1024.9 in West 0.3 mph 3.5 mph 95 % 0.0 in
07:00 5.3 °F 4.6 °F 1024.9 in West 0.3 mph 3.5 mph 95 % 0.0 in
07:01 5.3 °F 4.6 °F 1024.9 in West 0.3 mph 3.5 mph 95 % 0.0 in
07:02 5.3 °F 4.6 °F 1024.9 in West 0.3 mph 3.5 mph 95 % 0.0 in
07:04 5.3 °F 4.6 °F 1024.9 in WNW 0.2 mph 2.6 mph 95 % 0.0 in
07:05 5.3 °F 4.6 °F 1024.9 in WNW 0.3 mph 2.6 mph 95 % 0.0 in
07:06 5.3 °F 4.6 °F 1024.9 in WNW 0.3 mph 2.6 mph 95 % 0.0 in
07:07 5.3 °F 4.6 °F 1024.9 in WNW 0.3 mph 2.6 mph 95 % 0.0 in
07:08 5.3 °F 4.6 °F 1024.9 in WNW 0.3 mph 2.6 mph 95 % 0.0 in
07:10 5.3 °F 4.6 °F 1024.9 in WNW 0.3 mph 2.6 mph 95 % 0.0 in
07:12 5.2 °F 4.4 °F 1024.9 in WNW 0.3 mph 2.6 mph 95 % 0.0 in
07:13 5.2 °F 4.4 °F 1024.9 in WNW 0.3 mph 2.6 mph 95 % 0.0 in
07:14 5.2 °F 4.4 °F 1024.9 in North 0.2 mph   95 % 0.0 in
07:15 5.2 °F 4.4 °F 1024.9 in Calm     95 % 0.0 in
07:16 5.2 °F 4.4 °F 1024.9 in Calm     95 % 0.0 in
07:18 5.2 °F 4.4 °F 1024.9 in Calm     95 % 0.0 in
07:20 5.2 °F 4.4 °F 1024.9 in Calm     95 % 0.0 in
07:21 5.2 °F 4.4 °F 1024.9 in Calm     95 % 0.0 in
07:23 5.2 °F 4.4 °F 1024.9 in Calm     95 % 0.0 in
07:24 5.1 °F 4.4 °F 1024.9 in Calm     95 % 0.0 in
07:27 5.1 °F 4.4 °F 1024.9 in Calm     95 % 0.0 in
07:29 5.1 °F 4.4 °F 1023.9 in Calm     95 % 0.0 in
07:30 5.1 °F 4.4 °F 1023.9 in Calm     95 % 0.0 in
07:32 5.1 °F 4.4 °F 1023.9 in Calm     95 % 0.0 in
07:33 5.1 °F 4.4 °F 1023.9 in Calm     95 % 0.0 in
07:34 5.1 °F 4.4 °F 1023.9 in Calm     95 % 0.0 in
07:35 5.1 °F 4.4 °F 1023.9 in Calm     95 % 0.0 in
07:37 5.1 °F 4.4 °F 1023.9 in Calm     95 % 0.0 in
07:39 5.1 °F 4.4 °F 1023.9 in Calm     95 % 0.0 in
07:40 5.0 °F 4.3 °F 1023.9 in Calm     95 % 0.0 in
07:41 5.0 °F 4.3 °F 1023.9 in Calm     95 % 0.0 in
07:43 5.0 °F 4.3 °F 1023.9 in Calm     95 % 0.0 in
07:44 5.0 °F 4.3 °F 1023.9 in Calm     95 % 0.0 in
07:45 5.0 °F 4.3 °F 1023.9 in Calm     95 % 0.0 in
07:46 5.0 °F 4.3 °F 1023.9 in Calm   1.8 mph 95 % 0.0 in
07:48 5.0 °F 4.3 °F 1023.9 in Calm   1.8 mph 95 % 0.0 in
07:49 5.0 °F 4.3 °F 1023.9 in Calm   1.8 mph 95 % 0.0 in
07:50 5.0 °F 4.3 °F 1023.9 in Calm   1.8 mph 95 % 0.0 in
07:51 5.0 °F 4.3 °F 1023.9 in Calm   1.8 mph 95 % 0.0 in
07:53 5.0 °F 4.3 °F 1023.9 in Calm   1.8 mph 95 % 0.0 in
07:55 5.0 °F 4.3 °F 1023.9 in Calm   1.8 mph 95 % 0.0 in
07:56 5.0 °F 4.3 °F 1023.9 in WNW 0.2 mph 4.0 mph 95 % 0.0 in
07:57 5.0 °F 4.3 °F 1023.9 in WNW 0.2 mph 4.0 mph 95 % 0.0 in
07:58 5.0 °F 4.3 °F 1023.9 in WNW 0.5 mph 4.0 mph 95 % 0.0 in
07:59 5.0 °F 4.3 °F 1023.9 in WNW 0.5 mph 4.0 mph 95 % 0.0 in
08:00 5.0 °F 4.3 °F 1023.9 in WNW 0.5 mph 4.0 mph 95 % 0.0 in
08:01 5.0 °F 4.4 °F 1023.9 in WNW 0.5 mph 4.0 mph 96 % 0.0 in
08:02 5.0 °F 4.4 °F 1023.9 in WNW 0.6 mph 4.0 mph 96 % 0.0 in
08:03 5.0 °F 4.4 °F 1023.9 in WNW 0.6 mph 4.0 mph 96 % 0.0 in
08:04 5.0 °F 4.4 °F 1023.9 in WNW 0.6 mph 4.0 mph 96 % 0.0 in
08:05 5.0 °F 4.4 °F 1023.9 in WNW 0.6 mph 4.0 mph 96 % 0.0 in
08:08 5.0 °F 4.4 °F 1023.9 in WNW 0.6 mph 4.0 mph 96 % 0.0 in
08:09 5.0 °F 4.4 °F 1023.9 in WNW 0.8 mph 4.0 mph 96 % 0.0 in
08:10 5.1 °F 4.5 °F 1023.9 in WNW 1.0 mph 4.3 mph 96 % 0.0 in
08:11 5.1 °F 4.5 °F 1023.9 in WNW 1.3 mph 4.3 mph 96 % 0.0 in
08:12 5.1 °F 4.5 °F 1023.9 in WNW 1.3 mph 4.3 mph 96 % 0.0 in
08:16 5.2 °F 4.6 °F 1023.9 in WNW 1.1 mph 4.3 mph 96 % 0.0 in
08:17 5.2 °F 4.6 °F 1023.9 in WNW 1.0 mph 4.3 mph 96 % 0.0 in
08:19 5.2 °F 4.6 °F 1023.9 in West 0.6 mph 4.3 mph 96 % 0.0 in
08:20 5.2 °F 4.6 °F 1023.9 in WNW 0.6 mph 4.3 mph 96 % 0.0 in
08:21 5.2 °F 4.6 °F 1023.9 in North 0.3 mph 2.1 mph 96 % 0.0 in
08:22 5.2 °F 4.6 °F 1023.9 in North 0.2 mph 2.1 mph 96 % 0.0 in
08:24 5.3 °F 4.7 °F 1023.9 in NNW 0.2 mph 2.6 mph 96 % 0.0 in
08:27 5.3 °F 4.7 °F 1023.9 in WNW 1.0 mph 4.3 mph 96 % 0.0 in
08:28 5.3 °F 4.7 °F 1023.9 in WNW 1.0 mph 4.3 mph 96 % 0.0 in
08:29 5.4 °F 4.8 °F 1023.9 in WNW 1.3 mph 4.3 mph 96 % 0.0 in
08:31 5.4 °F 4.8 °F 1023.9 in WNW 1.4 mph 4.3 mph 96 % 0.0 in
08:32 5.4 °F 4.8 °F 1023.9 in WNW 1.4 mph 4.3 mph 96 % 0.0 in
08:33 5.4 °F 4.8 °F 1023.9 in WNW 1.4 mph 4.3 mph 96 % 0.0 in
08:35 5.5 °F 4.9 °F 1023.9 in WNW 1.3 mph 4.3 mph 96 % 0.0 in
08:36 5.5 °F 4.9 °F 1023.9 in WNW 1.0 mph 4.3 mph 96 % 0.0 in
08:37 5.5 °F 4.9 °F 1023.9 in WNW 0.8 mph 4.3 mph 96 % 0.0 in
08:38 5.5 °F 4.9 °F 1023.9 in North 0.3 mph   96 % 0.0 in
08:40 5.5 °F 4.9 °F 1023.9 in Calm   4.0 mph 96 % 0.0 in
08:41 5.6 °F 5.0 °F 1023.9 in SW 0.2 mph 4.0 mph 96 % 0.0 in
08:43 5.6 °F 5.0 °F 1023.9 in SW 0.6 mph 4.0 mph 96 % 0.0 in
08:46 5.6 °F 5.0 °F 1023.9 in West 1.0 mph 4.0 mph 96 % 0.0 in
08:47 5.6 °F 5.0 °F 1023.9 in West 1.0 mph 4.0 mph 96 % 0.0 in
08:58 5.8 °F 5.2 °F 1023.9 in Calm     96 % 0.0 in
09:00 5.8 °F 5.2 °F 1023.9 in Calm     96 % 0.0 in
09:01 5.8 °F 5.2 °F 1023.9 in Calm     96 % 0.0 in
09:02 5.8 °F 5.2 °F 1023.9 in Calm     96 % 0.0 in
09:03 5.8 °F 5.2 °F 1023.9 in Calm     96 % 0.0 in
09:04 5.9 °F 5.3 °F 1023.9 in Calm     96 % 0.0 in
09:07 5.9 °F 5.3 °F 1023.9 in Calm     96 % 0.0 in
09:08 6.0 °F 5.4 °F 1023.9 in Calm     96 % 0.0 in
09:09 6.0 °F 5.4 °F 1023.9 in Calm     96 % 0.0 in
09:11 6.0 °F 5.4 °F 1023.9 in Calm     96 % 0.0 in
09:14 6.0 °F 5.4 °F 1023.9 in Calm     96 % 0.0 in
09:15 6.1 °F 5.5 °F 1023.9 in Calm     96 % 0.0 in
09:16 6.1 °F 5.5 °F 1023.9 in Calm     96 % 0.0 in
09:17 6.1 °F 5.5 °F 1023.9 in Calm     96 % 0.0 in
09:18 6.2 °F 5.6 °F 1023.9 in Calm     96 % 0.0 in
09:20 6.2 °F 5.6 °F 1023.9 in Calm     96 % 0.0 in
09:22 6.3 °F 5.7 °F 1023.9 in NW 0.2 mph 3.5 mph 96 % 0.0 in
09:23 6.4 °F 5.8 °F 1023.9 in NW 0.2 mph 3.5 mph 96 % 0.0 in
09:24 6.4 °F 5.8 °F 1023.9 in NW 0.2 mph 3.5 mph 96 % 0.0 in
09:25 6.4 °F 5.8 °F 1023.9 in NW 0.3 mph 3.5 mph 96 % 0.0 in
09:26 6.4 °F 5.8 °F 1023.9 in NW 0.3 mph 3.5 mph 96 % 0.0 in
09:27 6.5 °F 5.9 °F 1023.9 in NW 0.3 mph 3.5 mph 96 % 0.0 in
09:28 6.5 °F 5.9 °F 1023.9 in NW 0.3 mph 3.5 mph 96 % 0.0 in
09:29 6.5 °F 5.9 °F 1023.9 in NW 0.6 mph 4.3 mph 96 % 0.0 in
09:30 6.5 °F 5.9 °F 1023.9 in NW 1.1 mph 4.3 mph 96 % 0.0 in
09:31 6.5 °F 5.9 °F 1023.9 in NW 1.1 mph 4.3 mph 96 % 0.0 in
09:32 6.6 °F 6.2 °F 1023.9 in WNW 1.6 mph 4.3 mph 97 % 0.0 in
09:35 6.7 °F 6.3 °F 1023.9 in West 2.3 mph 4.7 mph 97 % 0.0 in
09:36 6.7 °F 6.3 °F 1023.9 in West 2.4 mph 4.7 mph 97 % 0.0 in
09:37 6.7 °F 6.3 °F 1023.9 in West 2.6 mph 4.7 mph 97 % 0.0 in
09:38 6.7 °F 6.3 °F 1023.9 in West 2.6 mph 4.7 mph 97 % 0.0 in
09:39 6.7 °F 6.3 °F 1023.9 in West 2.6 mph 4.7 mph 97 % 0.0 in
09:40 6.8 °F 6.3 °F 1023.9 in WSW 2.6 mph 4.7 mph 97 % 0.0 in
09:42 6.8 °F 6.3 °F 1023.9 in WSW 2.4 mph 4.7 mph 97 % 0.0 in
09:44 6.8 °F 6.3 °F 1023.9 in WSW 1.8 mph 4.7 mph 97 % 0.0 in
09:46 6.9 °F 6.4 °F 1023.9 in SW 1.1 mph 4.0 mph 97 % 0.0 in
09:47 6.9 °F 6.4 °F 1023.9 in SW 1.0 mph 4.0 mph 97 % 0.0 in
09:48 6.9 °F 6.4 °F 1023.9 in SW 1.0 mph 4.0 mph 97 % 0.0 in
09:49 6.9 °F 6.4 °F 1023.9 in SW 0.6 mph 3.2 mph 97 % 0.0 in
09:50 6.9 °F 6.4 °F 1023.9 in SW 0.5 mph 3.2 mph 97 % 0.0 in
09:52 7.0 °F 6.4 °F 1023.9 in Calm     96 % 0.0 in
09:53 7.0 °F 6.4 °F 1023.9 in Calm     96 % 0.0 in
09:54 7.0 °F 6.4 °F 1023.9 in Calm     96 % 0.0 in
09:55 7.0 °F 6.4 °F 1023.9 in Calm     96 % 0.0 in
09:57 7.0 °F 6.4 °F 1023.9 in Calm     96 % 0.0 in
09:58 7.1 °F 6.5 °F 1022.9 in Calm     96 % 0.0 in
09:59 7.1 °F 6.5 °F 1022.9 in Calm     96 % 0.0 in
10:01 7.1 °F 6.5 °F 1022.9 in Calm     96 % 0.0 in
10:03 7.2 °F 6.6 °F 1022.9 in Calm     96 % 0.0 in
10:04 7.2 °F 6.6 °F 1022.9 in Calm   2.1 mph 96 % 0.0 in
10:07 7.3 °F 6.7 °F 1022.9 in Calm   2.1 mph 96 % 0.0 in
10:08 7.3 °F 6.7 °F 1022.9 in Calm   2.1 mph 96 % 0.0 in
10:11 7.3 °F 6.7 °F 1022.9 in Calm   2.1 mph 96 % 0.0 in
10:12 7.4 °F 6.9 °F 1022.9 in Calm   2.1 mph 97 % 0.0 in
10:16 7.4 °F 6.9 °F 1022.9 in Calm     97 % 0.0 in
10:18 7.4 °F 6.9 °F 1022.9 in Calm   2.6 mph 97 % 0.0 in
10:19 7.5 °F 7.1 °F 1022.9 in West 0.2 mph 2.6 mph 97 % 0.0 in
10:21 7.5 °F 7.1 °F 1022.9 in West 0.2 mph 2.6 mph 97 % 0.0 in
10:22 7.5 °F 7.1 °F 1022.9 in West 0.2 mph 2.6 mph 97 % 0.0 in
10:23 7.5 °F 7.1 °F 1022.9 in West 0.2 mph 2.6 mph 97 % 0.0 in
10:24 7.5 °F 7.1 °F 1022.9 in West 0.2 mph 2.6 mph 97 % 0.0 in
10:27 7.5 °F 7.1 °F 1022.9 in West 0.2 mph 2.6 mph 97 % 0.0 in
10:29 7.6 °F 7.2 °F 1022.9 in Calm     97 % 0.0 in
10:32 7.6 °F 7.2 °F 1022.9 in Calm     97 % 0.0 in
10:33 7.6 °F 7.2 °F 1022.9 in Calm     97 % 0.0 in
10:34 7.6 °F 7.2 °F 1022.9 in Calm     97 % 0.0 in
10:36 7.7 °F 7.3 °F 1022.9 in Calm     97 % 0.0 in
10:37 7.7 °F 7.3 °F 1022.9 in Calm     97 % 0.0 in
10:38 7.7 °F 7.3 °F 1022.9 in Calm     97 % 0.0 in
10:40 7.7 °F 7.3 °F 1022.9 in Calm     97 % 0.0 in
10:43 7.8 °F 7.3 °F 1022.9 in Calm     97 % 0.0 in
10:45 7.8 °F 7.3 °F 1022.9 in NE 0.8 mph 5.5 mph 97 % 0.0 in
10:49 7.8 °F 7.3 °F 1022.9 in NE 1.9 mph 5.8 mph 97 % 0.0 in
10:54 7.9 °F 7.4 °F 1022.9 in NE 2.4 mph 6.1 mph 97 % 0.0 in
10:55 7.9 °F 7.4 °F 1022.9 in NE 2.4 mph 6.1 mph 97 % 0.0 in
10:56 7.9 °F 7.4 °F 1022.9 in NNE 2.6 mph 6.1 mph 97 % 0.0 in
10:59 7.9 °F 7.4 °F 1021.9 in NE 2.6 mph 6.1 mph 97 % 0.0 in
11:00 7.9 °F 7.4 °F 1021.9 in NE 2.9 mph 6.1 mph 97 % 0.0 in
11:01 7.9 °F 7.4 °F 1021.9 in NE 2.9 mph 6.1 mph 97 % 0.0 in
11:03 8.0 °F 7.4 °F 1021.9 in NE 3.2 mph 6.1 mph 96 % 0.0 in
11:04 8.0 °F 7.4 °F 1021.9 in NE 3.1 mph 5.8 mph 96 % 0.0 in
11:05 8.0 °F 7.4 °F 1021.9 in NE 2.7 mph 5.0 mph 96 % 0.0 in
11:06 8.0 °F 7.4 °F 1021.9 in ENE 2.4 mph 5.0 mph 96 % 0.0 in
11:09 8.0 °F 7.4 °F 1021.9 in ENE 1.8 mph 4.7 mph 96 % 0.0 in
11:10 8.0 °F 7.4 °F 1021.9 in ENE 1.4 mph 4.7 mph 96 % 0.0 in
11:11 8.0 °F 7.4 °F 1021.9 in ENE 1.4 mph 4.7 mph 96 % 0.0 in
11:12 8.1 °F 7.5 °F 1022.9 in ENE 1.9 mph 5.0 mph 96 % 0.0 in
11:13 8.1 °F 7.5 °F 1022.9 in ENE 2.1 mph 5.0 mph 96 % 0.0 in
11:14 8.1 °F 7.5 °F 1022.9 in ENE 2.3 mph 5.0 mph 96 % 0.0 in
11:15 8.1 °F 7.5 °F 1022.9 in ENE 2.4 mph 6.1 mph 96 % 0.0 in
11:16 8.1 °F 7.5 °F 1022.9 in ENE 2.9 mph 6.1 mph 96 % 0.0 in
11:17 8.1 °F 7.5 °F 1022.9 in NE 3.1 mph 6.1 mph 96 % 0.0 in
11:19 8.2 °F 7.6 °F 1022.9 in NE 3.2 mph 6.1 mph 96 % 0.0 in
11:20 8.2 °F 7.6 °F 1022.9 in NE 2.9 mph 6.1 mph 96 % 0.0 in
11:21 8.2 °F 7.6 °F 1022.9 in NE 2.9 mph 6.1 mph 96 % 0.0 in
11:22 8.2 °F 7.6 °F 1022.9 in NE 2.7 mph 6.1 mph 96 % 0.0 in
11:23 8.2 °F 7.6 °F 1022.9 in NE 2.4 mph 6.1 mph 96 % 0.0 in
11:25 8.2 °F 7.6 °F 1022.9 in NE 2.1 mph 7.9 mph 96 % 0.0 in
11:26 8.2 °F 7.6 °F 1022.9 in NE 2.3 mph 7.9 mph 96 % 0.0 in
11:27 8.2 °F 7.6 °F 1022.9 in NE 2.3 mph 7.9 mph 96 % 0.0 in
11:28 8.3 °F 7.7 °F 1022.9 in ENE 2.3 mph 7.9 mph 96 % 0.0 in
11:30 8.3 °F 7.7 °F 1022.9 in ENE 2.6 mph 7.9 mph 96 % 0.0 in
11:32 8.3 °F 7.7 °F 1022.9 in ENE 3.1 mph 7.9 mph 96 % 0.0 in
11:34 8.3 °F 7.7 °F 1022.9 in ENE 3.4 mph 7.9 mph 96 % 0.0 in
11:37 8.4 °F 7.8 °F 1022.9 in ENE 2.1 mph 5.0 mph 96 % 0.0 in
11:38 8.4 °F 7.8 °F 1022.9 in NE 1.4 mph 5.0 mph 96 % 0.0 in
11:39 8.4 °F 7.8 °F 1022.9 in NE 1.3 mph 5.0 mph 96 % 0.0 in
11:40 8.4 °F 7.8 °F 1022.9 in NE 0.8 mph 4.0 mph 96 % 0.0 in
11:41 8.4 °F 7.8 °F 1022.9 in NE 0.8 mph 4.0 mph 96 % 0.0 in
11:43 8.4 °F 7.8 °F 1022.9 in North 0.3 mph   96 % 0.0 in
11:44 8.4 °F 7.8 °F 1022.9 in Calm     96 % 0.0 in
11:45 8.4 °F 7.8 °F 1022.9 in Calm     96 % 0.0 in
11:46 8.4 °F 7.8 °F 1022.9 in Calm     96 % 0.0 in
11:47 8.5 °F 7.9 °F 1022.9 in NNW 0.3 mph 3.5 mph 96 % 0.0 in
11:48 8.5 °F 7.9 °F 1022.9 in North 0.5 mph 3.5 mph 96 % 0.0 in
11:49 8.5 °F 7.9 °F 1022.9 in NNE 0.8 mph 3.5 mph 96 % 0.0 in
11:50 8.5 °F 7.9 °F 1022.9 in NNE 1.0 mph 4.0 mph 96 % 0.0 in
11:51 8.5 °F 7.9 °F 1022.9 in NNE 1.0 mph 4.7 mph 96 % 0.0 in
11:54 8.5 °F 7.9 °F 1022.9 in NNE 1.6 mph 4.7 mph 96 % 0.0 in
11:55 8.5 °F 7.9 °F 1022.9 in NE 1.9 mph 5.0 mph 96 % 0.0 in
11:59 8.5 °F 7.9 °F 1021.9 in ENE 3.1 mph 9.3 mph 96 % 0.0 in
12:01 8.5 °F 7.9 °F 1021.9 in ENE 4.0 mph 10.5 mph 96 % 0.0 in
12:02 8.5 °F 7.9 °F 1021.9 in ENE 4.5 mph 10.5 mph 96 % 0.0 in
12:05 8.5 °F 7.9 °F 1021.9 in ENE 5.5 mph 10.5 mph 96 % 0.0 in
12:07 8.5 °F 7.9 °F 1021.9 in NE 5.8 mph 10.5 mph 96 % 0.0 in
12:09 8.5 °F 7.9 °F 1021.9 in NE 5.6 mph 7.9 mph 96 % 0.0 in
12:10 8.5 °F 7.7 °F 1021.9 in NE 5.6 mph 7.9 mph 95 % 0.0 in
12:12 8.5 °F 7.7 °F 1021.9 in NE 5.0 mph 6.9 mph 95 % 0.0 in
12:17 8.4 °F 7.7 °F 1021.9 in NE 4.5 mph 6.4 mph 95 % 0.0 in
12:19 8.5 °F 7.7 °F 1021.9 in NE 4.5 mph 6.4 mph 95 % 0.0 in
12:20 8.5 °F 7.7 °F 1021.9 in NE 4.3 mph 6.4 mph 95 % 0.0 in
12:21 8.5 °F 7.7 °F 1021.9 in ENE 4.3 mph 6.4 mph 95 % 0.0 in
12:22 8.5 °F 7.7 °F 1021.9 in ENE 4.3 mph 6.4 mph 95 % 0.0 in
12:23 8.5 °F 7.7 °F 1021.9 in ENE 4.5 mph 6.4 mph 95 % 0.0 in
12:24 8.5 °F 7.7 °F 1021.9 in ENE 4.5 mph 6.4 mph 95 % 0.0 in
12:25 8.5 °F 7.7 °F 1021.9 in ENE 4.2 mph 6.4 mph 95 % 0.0 in
12:26 8.5 °F 7.7 °F 1021.9 in NE 4.0 mph 6.4 mph 95 % 0.0 in
12:27 8.5 °F 7.7 °F 1021.9 in NE 4.0 mph 6.4 mph 95 % 0.0 in
12:30 8.5 °F 7.7 °F 1020.9 in NE 3.9 mph 6.1 mph 95 % 0.0 in
12:31 8.5 °F 7.7 °F 1020.9 in NE 4.0 mph 6.1 mph 95 % 0.0 in
12:32 8.5 °F 7.7 °F 1020.9 in NE 4.0 mph 6.1 mph 95 % 0.0 in
12:33 8.5 °F 7.7 °F 1020.9 in NE 4.0 mph 6.1 mph 95 % 0.0 in
12:34 8.5 °F 7.7 °F 1020.9 in NE 4.0 mph 6.1 mph 95 % 0.0 in
12:35 8.5 °F 7.7 °F 1020.9 in NE 4.2 mph 6.1 mph 95 % 0.0 in
12:36 8.5 °F 7.7 °F 1020.9 in ENE 4.5 mph 6.9 mph 95 % 0.0 in
12:38 8.5 °F 7.7 °F 1020.9 in ENE 4.8 mph 6.9 mph 95 % 0.0 in
12:39 8.5 °F 7.7 °F 1020.9 in ENE 4.8 mph 6.9 mph 95 % 0.0 in
12:40 8.5 °F 7.7 °F 1020.9 in NE 4.5 mph 6.9 mph 95 % 0.0 in
12:42 8.5 °F 7.7 °F 1020.9 in NE 4.2 mph 6.9 mph 95 % 0.0 in
12:43 8.5 °F 7.7 °F 1020.9 in NE 4.0 mph 6.9 mph 95 % 0.0 in
12:44 8.5 °F 7.7 °F 1020.9 in NE 3.7 mph 6.9 mph 95 % 0.0 in
12:46 8.5 °F 7.7 °F 1020.9 in NE 3.2 mph 6.9 mph 95 % 0.0 in
12:48 8.5 °F 7.6 °F 1020.9 in NNE 2.4 mph 5.5 mph 94 % 0.0 in
12:49 8.5 °F 7.6 °F 1020.9 in NNE 2.1 mph 5.5 mph 94 % 0.0 in
12:50 8.5 °F 7.6 °F 1020.9 in NNE 2.3 mph 5.0 mph 94 % 0.0 in
12:51 8.5 °F 7.6 °F 1020.9 in NNE 2.4 mph 6.4 mph 94 % 0.0 in
12:54 8.6 °F 7.7 °F 1020.9 in NNE 3.4 mph 6.4 mph 94 % 0.0 in
12:55 8.5 °F 7.6 °F 1020.9 in NE 3.4 mph 6.4 mph 94 % 0.0 in
12:57 8.5 °F 7.6 °F 1020.9 in NE 3.9 mph 6.4 mph 94 % 0.0 in
12:58 8.5 °F 7.6 °F 1020.9 in NE 4.2 mph 6.4 mph 94 % 0.0 in
12:59 8.5 °F 7.6 °F 1020.9 in NE 4.7 mph 8.7 mph 94 % 0.0 in
13:00 8.5 °F 7.6 °F 1020.9 in NE 4.7 mph 9.3 mph 94 % 0.0 in
13:02 8.5 °F 7.6 °F 1020.9 in NE 5.5 mph 9.3 mph 94 % 0.0 in
13:03 8.5 °F 7.6 °F 1020.9 in NE 5.5 mph 9.3 mph 94 % 0.0 in
13:04 8.5 °F 7.6 °F 1020.9 in ENE 5.8 mph 9.3 mph 94 % 0.0 in
13:07 8.6 °F 7.7 °F 1020.9 in ENE 5.6 mph 9.3 mph 94 % 0.0 in
13:08 8.6 °F 7.7 °F 1020.9 in ENE 5.6 mph 9.3 mph 94 % 0.0 in
13:09 8.6 °F 7.7 °F 1020.9 in ENE 5.5 mph 9.3 mph 94 % 0.0 in
13:10 8.6 °F 7.7 °F 1020.9 in ENE 4.8 mph 9.3 mph 94 % 0.0 in
13:12 8.6 °F 7.7 °F 1020.9 in East 4.3 mph 9.3 mph 94 % 0.0 in
13:14 8.6 °F 7.7 °F 1020.9 in East 4.0 mph 5.8 mph 94 % 0.0 in
13:16 8.7 °F 7.8 °F 1020.9 in East 3.7 mph 5.8 mph 94 % 0.0 in
13:17 8.7 °F 7.8 °F 1020.9 in East 3.7 mph 5.5 mph 94 % 0.0 in
13:18 8.7 °F 7.8 °F 1020.9 in East 3.4 mph 5.0 mph 94 % 0.0 in
13:20 8.7 °F 7.6 °F 1020.9 in East 3.2 mph 6.9 mph 93 % 0.0 in
13:21 8.7 °F 7.6 °F 1020.9 in East 3.5 mph 6.9 mph 93 % 0.0 in
13:22 8.7 °F 7.6 °F 1020.9 in East 3.5 mph 6.9 mph 93 % 0.0 in
13:23 8.7 °F 7.6 °F 1020.9 in East 3.7 mph 6.9 mph 93 % 0.0 in
13:24 8.7 °F 7.6 °F 1020.9 in East 3.7 mph 6.9 mph 93 % 0.0 in
13:25 8.6 °F 7.6 °F 1020.9 in East 3.9 mph 6.9 mph 93 % 0.0 in
13:26 8.6 °F 7.6 °F 1020.9 in East 4.2 mph 6.9 mph 93 % 0.0 in
13:28 8.6 °F 7.6 °F 1020.9 in East 4.7 mph 6.9 mph 93 % 0.0 in
13:29 8.6 °F 7.6 °F 1020.9 in East 4.7 mph 6.9 mph 93 % 0.0 in
13:31 8.6 °F 7.6 °F 1020.9 in East 4.3 mph 6.4 mph 93 % 0.0 in
13:32 8.6 °F 7.6 °F 1020.9 in East 4.3 mph 6.4 mph 93 % 0.0 in
13:33 8.6 °F 7.6 °F 1020.9 in ENE 4.0 mph 6.4 mph 93 % 0.0 in
13:35 8.6 °F 7.6 °F 1020.9 in ENE 4.0 mph 6.1 mph 93 % 0.0 in
13:36 8.6 °F 7.6 °F 1020.9 in ENE 3.9 mph 6.1 mph 93 % 0.0 in
13:38 8.6 °F 7.6 °F 1020.9 in NE 4.0 mph 6.4 mph 93 % 0.0 in
13:39 8.6 °F 7.6 °F 1020.9 in NE 4.3 mph 6.4 mph 93 % 0.0 in
13:40 8.6 °F 7.6 °F 1020.9 in NE 4.5 mph 6.4 mph 93 % 0.0 in
13:42 8.6 °F 7.6 °F 1019.9 in NE 4.7 mph 6.4 mph 93 % 0.0 in
13:44 8.6 °F 7.6 °F 1019.9 in NE 4.3 mph 6.4 mph 93 % 0.0 in
13:46 8.6 °F 7.6 °F 1019.9 in NE 3.7 mph 6.4 mph 93 % 0.0 in
13:48 8.6 °F 7.6 °F 1019.9 in NE 2.4 mph 5.8 mph 93 % 0.0 in
13:50 8.6 °F 7.6 °F 1019.9 in NE 2.1 mph 5.8 mph 93 % 0.0 in
13:51 8.6 °F 7.6 °F 1019.9 in NE 1.9 mph 5.8 mph 93 % 0.0 in
13:53 8.5 °F 7.3 °F 1019.9 in NE 1.3 mph 5.8 mph 92 % 0.0 in
13:54 8.5 °F 7.3 °F 1019.9 in NE 1.6 mph 5.8 mph 92 % 0.0 in
13:56 8.5 °F 7.3 °F 1019.9 in NE 2.1 mph 5.8 mph 92 % 0.0 in
13:57 8.5 °F 7.3 °F 1019.9 in NE 2.4 mph 5.8 mph 92 % 0.0 in
13:58 8.5 °F 7.3 °F 1019.9 in NE 2.6 mph 5.8 mph 92 % 0.0 in
13:59 8.5 °F 7.3 °F 1019.9 in NE 2.6 mph 4.7 mph 92 % 0.0 in
14:00 8.5 °F 7.3 °F 1019.9 in NE 2.1 mph 4.7 mph 92 % 0.0 in
14:01 8.5 °F 7.3 °F 1019.9 in NE 1.9 mph 4.7 mph 92 % 0.0 in
14:02 8.5 °F 7.3 °F 1019.9 in NE 1.9 mph 4.7 mph 92 % 0.0 in
14:03 8.5 °F 7.3 °F 1019.9 in NE 1.9 mph 4.7 mph 92 % 0.0 in
14:04 8.5 °F 7.3 °F 1019.9 in NE 1.6 mph 4.7 mph 92 % 0.0 in
14:05 8.5 °F 7.3 °F 1019.9 in ENE 1.6 mph 4.7 mph 92 % 0.0 in
14:09 8.5 °F 7.3 °F 1019.9 in NE 0.2 mph 1.8 mph 92 % 0.0 in
14:11 8.5 °F 7.3 °F 1019.9 in Calm     92 % 0.0 in
14:13 8.5 °F 7.3 °F 1019.9 in Calm     92 % 0.0 in
14:14 8.5 °F 7.3 °F 1019.9 in Calm     92 % 0.0 in
14:15 8.5 °F 7.3 °F 1019.9 in Calm     92 % 0.0 in
14:16 8.5 °F 7.3 °F 1019.9 in Calm     92 % 0.0 in
14:18 8.5 °F 7.3 °F 1019.9 in Calm     92 % 0.0 in
14:19 8.5 °F 7.3 °F 1019.9 in Calm     92 % 0.0 in
14:20 8.5 °F 7.3 °F 1019.9 in Calm   2.1 mph 92 % 0.0 in
14:21 8.5 °F 7.3 °F 1019.9 in ENE 0.2 mph 4.3 mph 92 % 0.0 in
14:22 8.5 °F 7.3 °F 1019.9 in ENE 0.5 mph 4.3 mph 92 % 0.0 in
14:23 8.5 °F 7.3 °F 1019.9 in ENE 1.0 mph 5.0 mph 92 % 0.0 in
14:24 8.5 °F 7.3 °F 1019.9 in ENE 1.1 mph 5.0 mph 92 % 0.0 in
14:25 8.5 °F 7.3 °F 1019.9 in ENE 1.6 mph 5.0 mph 92 % 0.0 in
14:27 8.5 °F 7.3 °F 1020.9 in ENE 2.4 mph 5.8 mph 92 % 0.0 in
14:28 8.5 °F 7.3 °F 1020.9 in ENE 2.6 mph 5.8 mph 92 % 0.0 in
14:30 8.5 °F 7.3 °F 1020.9 in ENE 3.7 mph 5.8 mph 92 % 0.0 in
14:32 8.5 °F 7.3 °F 1020.9 in NE 4.0 mph 5.8 mph 92 % 0.0 in
14:33 8.5 °F 7.3 °F 1020.9 in NE 4.0 mph 5.8 mph 92 % 0.0 in
14:34 8.5 °F 7.1 °F 1020.9 in NE 4.0 mph 5.8 mph 91 % 0.0 in
14:35 8.5 °F 7.1 °F 1020.9 in NE 4.2 mph 6.4 mph 91 % 0.0 in
14:36 8.5 °F 7.1 °F 1020.9 in NE 4.5 mph 6.9 mph 91 % 0.0 in
14:38 8.5 °F 7.1 °F 1020.9 in ENE 4.8 mph 6.9 mph 91 % 0.0 in
14:40 8.4 °F 7.0 °F 1020.9 in ENE 4.8 mph 6.9 mph 91 % 0.0 in
14:41 8.4 °F 7.0 °F 1020.9 in ENE 4.8 mph 6.9 mph 91 % 0.0 in
14:43 8.4 °F 7.0 °F 1018.8 in ENE 5.0 mph 6.9 mph 91 % 0.0 in
14:44 8.4 °F 7.0 °F 1018.8 in ENE 5.0 mph 6.9 mph 91 % 0.0 in
14:45 8.4 °F 7.0 °F 1018.8 in ENE 5.0 mph 6.9 mph 91 % 0.0 in
14:46 8.4 °F 7.0 °F 1018.8 in ENE 4.8 mph 6.9 mph 91 % 0.0 in
14:48 8.4 °F 7.0 °F 1018.8 in ENE 4.2 mph 6.4 mph 91 % 0.0 in
14:50 8.4 °F 7.0 °F 1018.8 in East 4.0 mph 5.5 mph 91 % 0.0 in
14:51 8.4 °F 7.0 °F 1018.8 in East 4.0 mph 6.1 mph 91 % 0.0 in
14:53 8.3 °F 6.9 °F 1018.8 in East 4.2 mph 6.4 mph 91 % 0.0 in
14:54 8.3 °F 6.9 °F 1018.8 in East 4.3 mph 6.4 mph 91 % 0.0 in
14:55 8.3 °F 6.9 °F 1018.8 in East 4.3 mph 6.4 mph 91 % 0.0 in
14:58 8.3 °F 6.9 °F 1018.2 in East 4.7 mph 6.4 mph 91 % 0.0 in
14:59 8.3 °F 6.9 °F 1018.2 in East 4.5 mph 6.4 mph 91 % 0.0 in
15:00 8.3 °F 6.9 °F 1018.2 in East 4.5 mph 6.4 mph 91 % 0.0 in
15:02 8.2 °F 6.8 °F 1018.2 in East 4.3 mph 6.1 mph 91 % 0.0 in
15:04 8.2 °F 6.8 °F 1018.2 in East 3.7 mph 6.1 mph 91 % 0.0 in
15:06 8.2 °F 6.8 °F 1018.2 in East 2.9 mph 6.1 mph 91 % 0.0 in
15:09 8.2 °F 6.8 °F 1018.2 in ESE 2.4 mph 6.1 mph 91 % 0.0 in
15:10 8.2 °F 6.8 °F 1018.2 in ESE 2.4 mph 6.1 mph 91 % 0.0 in
15:11 8.2 °F 6.8 °F 1018.2 in ESE 2.4 mph 5.0 mph 91 % 0.0 in
15:12 8.2 °F 6.8 °F 1018.8 in ESE 2.3 mph 6.9 mph 91 % 0.0 in
15:14 8.2 °F 6.8 °F 1018.8 in ESE 2.6 mph 6.9 mph 91 % 0.0 in
15:15 8.1 °F 6.6 °F 1018.8 in ESE 2.7 mph 6.9 mph 90 % 0.0 in
15:16 8.1 °F 6.6 °F 1018.8 in ESE 2.7 mph 6.9 mph 90 % 0.0 in
15:17 8.1 °F 6.6 °F 1018.8 in ESE 3.2 mph 6.9 mph 90 % 0.0 in
15:18 8.1 °F 6.6 °F 1018.8 in ESE 3.2 mph 6.9 mph 90 % 0.0 in
15:20 8.1 °F 6.6 °F 1018.8 in ESE 3.2 mph 6.9 mph 90 % 0.0 in
15:22 8.1 °F 6.6 °F 1018.8 in ESE 3.5 mph 6.1 mph 90 % 0.0 in
15:23 8.1 °F 6.6 °F 1018.8 in East 3.4 mph 6.1 mph 90 % 0.0 in
15:25 8.1 °F 6.6 °F 1018.8 in ESE 3.1 mph 6.1 mph 90 % 0.0 in
15:26 8.1 °F 6.6 °F 1018.8 in ESE 2.6 mph 6.1 mph 90 % 0.0 in
15:27 8.1 °F 6.6 °F 1018.8 in ESE 2.4 mph 6.1 mph 90 % 0.0 in
15:28 8.1 °F 6.6 °F 1018.8 in ESE 2.1 mph 6.1 mph 90 % 0.0 in
15:29 8.1 °F 6.6 °F 1018.8 in ESE 1.9 mph 6.1 mph 90 % 0.0 in
15:30 8.1 °F 6.6 °F 1018.8 in East 1.4 mph 6.1 mph 90 % 0.0 in
15:34 8.1 °F 6.6 °F 1018.8 in NW 0.2 mph 1.4 mph 90 % 0.0 in
15:36 8.1 °F 6.6 °F 1018.8 in Calm     90 % 0.0 in
15:37 8.1 °F 6.6 °F 1018.8 in Calm     90 % 0.0 in
15:38 8.0 °F 6.4 °F 1018.8 in Calm     90 % 0.0 in
15:39 8.0 °F 6.4 °F 1018.8 in Calm     90 % 0.0 in
15:40 8.0 °F 6.4 °F 1018.8 in Calm     90 % 0.0 in
15:41 8.0 °F 6.4 °F 1018.8 in Calm     90 % 0.0 in
15:42 8.0 °F 6.4 °F 1018.8 in Calm     90 % 0.0 in
15:43 8.0 °F 6.4 °F 1018.8 in Calm     90 % 0.0 in
15:44 8.0 °F 6.4 °F 1018.8 in Calm     90 % 0.0 in
15:46 8.0 °F 6.4 °F 1018.8 in Calm     90 % 0.0 in
15:47 7.9 °F 6.5 °F 1018.8 in Calm     91 % 0.0 in
15:48 7.9 °F 6.5 °F 1018.8 in Calm     91 % 0.0 in
15:49 7.9 °F 6.5 °F 1018.8 in Calm     91 % 0.0 in
15:50 7.9 °F 6.5 °F 1018.8 in Calm     91 % 0.0 in
15:52 7.9 °F 6.5 °F 1018.8 in Calm     91 % 0.0 in
15:53 7.9 °F 6.5 °F 1018.8 in Calm     91 % 0.0 in
15:54 7.9 °F 6.5 °F 1018.8 in Calm     91 % 0.0 in
15:56 7.9 °F 6.5 °F 1018.8 in Calm     91 % 0.0 in
15:58 7.8 °F 6.4 °F 1018.8 in Calm     91 % 0.0 in
15:59 7.8 °F 6.4 °F 1018.8 in Calm     91 % 0.0 in
16:01 7.8 °F 6.4 °F 1018.8 in Calm     91 % 0.0 in
16:03 7.8 °F 6.4 °F 1018.8 in Calm     91 % 0.0 in
16:05 7.8 °F 6.4 °F 1018.8 in Calm     91 % 0.0 in
16:07 7.8 °F 6.4 °F 1018.8 in Calm     91 % 0.0 in
16:08 7.8 °F 6.4 °F 1018.8 in Calm     91 % 0.0 in
16:09 7.8 °F 6.4 °F 1018.8 in Calm     91 % 0.0 in
16:13 7.7 °F 6.3 °F 1018.8 in Calm     91 % 0.0 in
16:14 7.7 °F 6.3 °F 1018.8 in Calm     91 % 0.0 in
16:15 7.7 °F 6.3 °F 1018.8 in Calm     91 % 0.0 in
16:17 7.7 °F 6.3 °F 1018.8 in Calm     91 % 0.0 in
16:18 7.7 °F 6.3 °F 1018.8 in Calm     91 % 0.0 in
16:19 7.7 °F 6.3 °F 1018.8 in Calm     91 % 0.0 in
16:20 7.7 °F 6.3 °F 1018.8 in Calm     91 % 0.0 in
16:22 7.7 °F 6.3 °F 1018.8 in Calm   4.3 mph 91 % 0.0 in
16:23 7.7 °F 6.3 °F 1018.8 in NE 0.2 mph 4.3 mph 91 % 0.0 in
16:24 7.7 °F 6.3 °F 1018.8 in NE 0.6 mph 4.3 mph 91 % 0.0 in
16:26 7.7 °F 6.3 °F 1018.8 in NE 0.6 mph 4.3 mph 91 % 0.0 in
16:27 7.7 °F 6.3 °F 1018.8 in NE 0.8 mph 4.3 mph 91 % 0.0 in
16:28 7.6 °F 6.2 °F 1018.8 in NE 0.6 mph 4.3 mph 91 % 0.0 in
16:29 7.6 °F 6.2 °F 1018.8 in NE 0.6 mph 4.3 mph 91 % 0.0 in
16:30 7.6 °F 6.2 °F 1018.8 in NE 0.6 mph 4.3 mph 91 % 0.0 in
16:31 7.6 °F 6.2 °F 1018.8 in NE 0.6 mph 4.3 mph 91 % 0.0 in
16:33 7.6 °F 6.2 °F 1018.8 in NE 0.6 mph 4.3 mph 91 % 0.0 in
16:34 7.5 °F 6.1 °F 1018.8 in East 0.5 mph 3.2 mph 91 % 0.0 in
16:36 7.5 °F 6.1 °F 1018.8 in ESE 1.0 mph 3.2 mph 91 % 0.0 in
16:38 7.5 °F 6.1 °F 1018.8 in ESE 1.3 mph 3.5 mph 91 % 0.0 in
16:39 7.5 °F 6.1 °F 1018.8 in ESE 1.4 mph 3.5 mph 91 % 0.0 in
16:40 7.5 °F 6.1 °F 1018.8 in SE 1.6 mph 3.5 mph 91 % 0.0 in
16:41 7.4 °F 6.0 °F 1018.8 in SE 1.8 mph 3.5 mph 91 % 0.0 in
16:42 7.4 °F 6.0 °F 1018.8 in SE 1.8 mph 3.5 mph 91 % 0.0 in
16:43 7.4 °F 6.0 °F 1018.8 in SE 1.8 mph 3.5 mph 91 % 0.0 in
16:44 7.4 °F 6.0 °F 1018.8 in SE 1.4 mph 3.5 mph 91 % 0.0 in
16:45 7.4 °F 6.0 °F 1018.8 in SE 1.3 mph 3.5 mph 91 % 0.0 in
16:46 7.4 °F 6.0 °F 1018.8 in SE 1.1 mph 3.5 mph 91 % 0.0 in
16:48 7.3 °F 5.9 °F 1018.8 in SE 0.5 mph 3.5 mph 91 % 0.0 in
16:49 7.3 °F 5.9 °F 1018.8 in SE 0.3 mph 1.8 mph 91 % 0.0 in
16:55 7.2 °F 5.8 °F 1018.8 in Calm   2.6 mph 91 % 0.0 in
16:56 7.1 °F 5.7 °F 1018.8 in SW 0.2 mph 3.2 mph 91 % 0.0 in
16:57 7.1 °F 5.7 °F 1018.8 in SW 0.3 mph 3.2 mph 91 % 0.0 in
16:59 7.1 °F 5.7 °F 1018.8 in SW 0.3 mph 3.2 mph 91 % 0.0 in
17:00 7.0 °F 5.6 °F 1018.8 in SW 0.3 mph 3.2 mph 91 % 0.0 in
17:02 6.9 °F 5.6 °F 1018.8 in SW 0.3 mph 3.2 mph 91 % 0.0 in
17:03 6.9 °F 5.6 °F 1018.8 in SW 0.3 mph 3.2 mph 91 % 0.0 in
17:04 6.9 °F 5.6 °F 1018.8 in SW 0.3 mph 3.2 mph 91 % 0.0 in
17:05 6.9 °F 5.6 °F 1018.8 in WSW 0.3 mph 3.2 mph 91 % 0.0 in
17:06 6.8 °F 5.4 °F 1018.8 in West 0.5 mph 2.6 mph 91 % 0.0 in
17:08 6.8 °F 5.4 °F 1018.8 in West 0.3 mph 2.6 mph 91 % 0.0 in
17:09 6.8 °F 5.4 °F 1018.8 in West 0.3 mph 2.6 mph 91 % 0.0 in
17:10 6.8 °F 5.4 °F 1018.8 in West 0.3 mph 2.6 mph 91 % 0.0 in
17:11 6.8 °F 5.4 °F 1018.8 in West 0.3 mph 2.6 mph 91 % 0.0 in
17:12 6.8 °F 5.4 °F 1019.9 in West 0.3 mph 2.6 mph 91 % 0.0 in
17:13 6.8 °F 5.4 °F 1019.9 in West 0.3 mph 2.6 mph 91 % 0.0 in
17:14 6.8 °F 5.4 °F 1019.9 in West 0.3 mph 1.8 mph 91 % 0.0 in
17:15 6.8 °F 5.4 °F 1019.9 in West 0.3 mph 1.8 mph 91 % 0.0 in
17:16 6.7 °F 5.3 °F 1019.9 in North 0.2 mph   91 % 0.0 in
17:17 6.7 °F 5.3 °F 1019.9 in Calm     91 % 0.0 in
17:18 6.7 °F 5.3 °F 1019.9 in Calm     91 % 0.0 in
17:19 6.7 °F 5.3 °F 1019.9 in Calm     91 % 0.0 in
17:21 6.7 °F 5.3 °F 1019.9 in Calm     91 % 0.0 in
17:23 6.7 °F 5.3 °F 1019.9 in Calm     91 % 0.0 in
17:24 6.7 °F 5.3 °F 1019.9 in Calm     91 % 0.0 in
17:25 6.7 °F 5.3 °F 1019.9 in Calm     91 % 0.0 in
17:26 6.7 °F 5.3 °F 1019.9 in Calm     91 % 0.0 in
17:27 6.7 °F 5.3 °F 1018.8 in Calm     91 % 0.0 in
17:28 6.7 °F 5.3 °F 1018.8 in Calm   4.7 mph 91 % 0.0 in
17:29 6.7 °F 5.3 °F 1018.8 in Calm   4.7 mph 91 % 0.0 in
17:30 6.7 °F 5.3 °F 1018.8 in NNW 0.2 mph 4.7 mph 91 % 0.0 in
17:32 6.8 °F 5.4 °F 1018.8 in NNW 0.3 mph 4.7 mph 91 % 0.0 in
17:33 6.8 °F 5.4 °F 1018.8 in NNE 0.3 mph 4.7 mph 91 % 0.0 in
17:34 6.8 °F 5.4 °F 1018.8 in NNE 0.6 mph 4.7 mph 91 % 0.0 in
17:35 6.8 °F 5.4 °F 1018.8 in NNE 0.6 mph 4.7 mph 91 % 0.0 in
17:36 6.8 °F 5.4 °F 1018.8 in NNE 0.6 mph 4.7 mph 91 % 0.0 in
17:38 6.8 °F 5.6 °F 1018.8 in ENE 1.0 mph 5.8 mph 92 % 0.0 in
17:39 6.8 °F 5.6 °F 1018.8 in ENE 1.1 mph 5.8 mph 92 % 0.0 in
17:40 6.8 °F 5.6 °F 1018.8 in ENE 1.3 mph 5.8 mph 92 % 0.0 in
17:42 6.9 °F 5.7 °F 1019.9 in ENE 1.3 mph 5.8 mph 92 % 0.0 in
17:43 6.9 °F 5.7 °F 1019.9 in ENE 1.1 mph 5.8 mph 92 % 0.0 in
17:44 6.9 °F 5.7 °F 1019.9 in East 1.1 mph 5.8 mph 92 % 0.0 in
17:46 6.9 °F 5.7 °F 1019.9 in ENE 1.0 mph 5.8 mph 92 % 0.0 in
17:47 6.9 °F 5.7 °F 1019.9 in East 1.0 mph 5.8 mph 92 % 0.0 in
17:48 6.9 °F 5.7 °F 1019.9 in East 0.6 mph 4.0 mph 92 % 0.0 in
17:49 6.9 °F 5.7 °F 1019.9 in East 0.2 mph 3.2 mph 92 % 0.0 in
17:50 6.9 °F 5.7 °F 1019.9 in East 0.2 mph 3.2 mph 92 % 0.0 in
17:52 6.9 °F 5.7 °F 1019.9 in Calm   2.6 mph 92 % 0.0 in
17:54 7.0 °F 5.8 °F 1019.9 in Calm   2.6 mph 92 % 0.0 in
17:55 7.0 °F 5.8 °F 1019.9 in Calm   2.6 mph 92 % 0.0 in
17:56 7.0 °F 5.8 °F 1019.9 in Calm   2.6 mph 92 % 0.0 in
17:57 7.0 °F 5.8 °F 1018.8 in Calm   2.6 mph 92 % 0.0 in
17:58 7.0 °F 5.8 °F 1018.8 in Calm   2.6 mph 92 % 0.0 in
17:59 7.0 °F 5.8 °F 1018.8 in Calm   3.2 mph 92 % 0.0 in
18:00 7.0 °F 5.8 °F 1018.8 in NE 0.2 mph 3.2 mph 92 % 0.0 in
18:01 7.0 °F 5.8 °F 1018.8 in NE 0.3 mph 3.2 mph 92 % 0.0 in
18:04 7.1 °F 5.9 °F 1018.8 in NNE 0.3 mph 3.5 mph 92 % 0.0 in
18:05 7.1 °F 5.9 °F 1018.8 in North 0.5 mph 3.5 mph 92 % 0.0 in
18:06 7.1 °F 5.9 °F 1018.8 in WNW 1.1 mph 6.9 mph 92 % 0.0 in
18:07 7.1 °F 5.9 °F 1018.8 in WNW 1.4 mph 6.9 mph 92 % 0.0 in
18:08 7.1 °F 5.9 °F 1018.8 in WNW 2.4 mph 8.7 mph 92 % 0.0 in
18:13 7.2 °F 6.0 °F 1019.9 in West 5.3 mph 10.1 mph 92 % 0.0 in
18:15 7.3 °F 6.1 °F 1019.9 in West 5.8 mph 10.1 mph 92 % 0.0 in
18:19 7.4 °F 6.2 °F 1019.9 in WSW 5.8 mph 10.1 mph 92 % 0.0 in
18:20 7.4 °F 6.2 °F 1019.9 in WSW 5.6 mph 10.1 mph 92 % 0.0 in
18:21 7.4 °F 6.2 °F 1019.9 in SW 5.3 mph 9.3 mph 92 % 0.0 in
18:22 7.4 °F 6.2 °F 1019.9 in SW 5.3 mph 9.3 mph 92 % 0.0 in
18:24 7.5 °F 6.3 °F 1019.9 in SW 4.7 mph 9.0 mph 92 % 0.0 in
18:26 7.5 °F 6.4 °F 1019.9 in SW 4.5 mph 9.0 mph 93 % 0.0 in
18:29 7.6 °F 6.6 °F 1020.9 in SW 4.2 mph 9.0 mph 93 % 0.0 in
18:34 7.7 °F 6.7 °F 1020.9 in SW 3.9 mph 6.9 mph 93 % 0.0 in
18:40 7.7 °F 6.7 °F 1020.9 in SSW 2.3 mph 6.9 mph 93 % 0.3 in
18:53 7.7 °F 6.7 °F 1020.9 in South 1.4 mph 4.0 mph 93 % 0.5 in
18:57 7.6 °F 6.6 °F 1020.9 in South 1.1 mph 3.2 mph 93 % 0.5 in
19:00 7.5 °F 6.4 °F 1020.9 in SSW 0.5 mph 2.6 mph 93 % 0.5 in
19:07 7.5 °F 6.4 °F 1020.9 in Calm     93 % 1.0 in
19:12 7.4 °F 6.3 °F 1020.9 in Calm     93 % 1.0 in
19:15 7.4 °F 6.3 °F 1020.9 in Calm     93 % 1.0 in
19:21 7.4 °F 6.3 °F 1020.9 in SW 2.3 mph 5.5 mph 93 % 1.3 in
19:22 7.4 °F 6.3 °F 1020.9 in SW 2.4 mph 5.5 mph 93 % 1.3 in
19:25 7.4 °F 6.3 °F 1020.9 in SW 3.2 mph 5.5 mph 93 % 1.3 in
19:27 7.4 °F 6.3 °F 1020.9 in SW 3.1 mph 5.5 mph 93 % 1.3 in
19:30 7.3 °F 6.2 °F 1020.9 in SW 1.4 mph 4.3 mph 93 % 1.5 in
19:32 7.3 °F 6.2 °F 1020.9 in SW 1.0 mph 3.5 mph 93 % 1.5 in
19:33 7.3 °F 6.2 °F 1020.9 in SW 0.5 mph 3.5 mph 93 % 1.5 in
19:34 7.3 °F 6.2 °F 1020.9 in SW 0.2 mph 1.8 mph 93 % 1.5 in
19:36 7.3 °F 6.2 °F 1020.9 in Calm     93 % 1.5 in
19:38 7.3 °F 6.2 °F 1020.9 in Calm     93 % 1.5 in
19:44 7.2 °F 6.2 °F 1020.9 in Calm     93 % 1.5 in
19:46 7.2 °F 6.2 °F 1020.9 in Calm     93 % 1.5 in
19:47 7.2 °F 6.2 °F 1020.9 in Calm     93 % 1.5 in
19:53 7.2 °F 6.3 °F 1020.9 in Calm     94 % 1.5 in
19:57 7.1 °F 6.2 °F 1020.9 in Calm     94 % 1.5 in
20:01 7.1 °F 6.2 °F 1020.9 in Calm   2.1 mph 94 % 1.5 in
20:02 7.1 °F 6.2 °F 1020.9 in Calm   2.1 mph 94 % 1.5 in
20:06 7.1 °F 6.2 °F 1020.9 in SW 0.3 mph 2.1 mph 94 % 1.3 in
20:11 7.1 °F 6.2 °F 1020.9 in SW 0.5 mph 2.1 mph 94 % 1.3 in
20:16 7.1 °F 6.2 °F 1019.9 in SW 0.2 mph 2.1 mph 94 % 1.3 in
20:22 7.1 °F 6.2 °F 1019.9 in Calm     94 % 1.3 in
Vremenska postaja Senovo
Podatki zbrani iz Weather Underground - 5.5 mb

Script developed by  Jim McMurry - jmcmurry@mwt.net Adapted for the template by  Wim van der Kuil - Leuven-Template.eu

Vremenski podatki so objavljeni na:

European Weather Network

WeatherCloud

Weather Underground

AWEKAS

HAMweather, WeatherForYou, PWS Weather

MapView

Geostik

Slovenia weather network

Oprema, ki se uporablja:

Vremenski program
Cumulus

Vremenski server
Asus

Cumulus

Asus